This is the latest recevied weather packets stored in our database for station/object EA2FT-7. If no packets are shown the sender has not sent any weather packets the latest 10 day(s).
| Time | Temp. | Humidity | Pressure | Rain* | Wind** | Luminosity | Snow |
|---|---|---|---|---|---|---|---|
| 1777211385 | 42.78° C | 24% | 971 hPa | - | - | - | - |
| 1777211085 | 42.78° C | 24% | 971 hPa | - | - | - | - |
| 1777210785 | 42.22° C | 24% | 971.1 hPa | - | - | - | - |
| 1777210485 | 42.22° C | 24% | 971.1 hPa | - | - | - | - |
| 1777210185 | 41.67° C | 23% | 971.3 hPa | - | - | - | - |
| 1777209885 | 41.67° C | 23% | 971.3 hPa | - | - | - | - |
| 1777209585 | 41.11° C | 23% | 971.3 hPa | - | - | - | - |
| 1777209285 | 40.56° C | 23% | 971.4 hPa | - | - | - | - |
| 1777208985 | 40° C | 23% | 971.4 hPa | - | - | - | - |
| 1777208685 | 40° C | 23% | 971.6 hPa | - | - | - | - |
| 1777208385 | 39.44° C | 22% | 971.5 hPa | - | - | - | - |
| 1777208085 | 38.89° C | 22% | 971.6 hPa | - | - | - | - |
| 1777207785 | 38.89° C | 22% | 971.6 hPa | - | - | - | - |
| 1777207485 | 38.33° C | 21% | 971.7 hPa | - | - | - | - |
| 1777207185 | 38.33° C | 21% | 971.7 hPa | - | - | - | - |
| 1777206885 | 38.33° C | 20% | 971.8 hPa | - | - | - | - |
| 1777206585 | 38.89° C | 20% | 971.9 hPa | - | - | - | - |
| 1777205080 | 37.78° C | 19% | 986.9 hPa | - | - | - | - |
| 1777204176 | 37.22° C | 20% | 996.9 hPa | - | - | - | - |
| 1777198740 | 34.44° C | 29% | 982 hPa | - | - | - | - |
| 1777198440 | 34.44° C | 30% | 986.9 hPa | - | - | - | - |
| 1777198136 | 33.33° C | 30% | 995.4 hPa | - | - | - | - |
| 1777196622 | 29.44° C | 35% | 1018 hPa | - | - | - | - |
| 1777196017 | 27.78° C | 36% | 1013.9 hPa | - | - | - | - |
| 1777195104 | 21.11° C | 41% | 1018.1 hPa | - | - | - | - |
* Rain since midnight (hover to see other rain measurements)
** Current wind speed in m/s (hover to see current wind gust speed)